Weather History for KDLH - September, 2013

Change the Weather History Date:

Monday, September 2, 2013

  Actual Average Record
Temperature  
Mean Temperature 58 °F 61 °F  
Max Temperature 67 °F 70 °F 92 °F (1983)
Min Temperature 48 °F 51 °F 34 °F (1974)
Degree Days  
Heating Degree Days 7 5  
Month to date heating degree days 7 10  
Since 1 July heating degree days 81 159  
Cooling Degree Days 0 1  
Month to date cooling degree days 0 2  
Year to date cooling degree days 351 192  
Growing Degree Days 8 (Base 50)    
Moisture  
Dew Point 47 °F    
Average Humidity 66    
Maximum Humidity 83    
Minimum Humidity 48    
Precipitation  
Precipitation T in 0.13 in 2.20 in (1985)
Month to date precipitation T 0.27  
Year to date precipitation 21.59 20.97  
Snow  
Snow 0.00 in 0.00 in 0.00 in (2002)
Month to date snowfall 0.0 0.0  
Since 1 July snowfall 0.0 0.0  
Since 1 September snowfall 0.0 0.0  
Snow Depth 0.00 in    
Sea Level Pressure  
Sea Level Pressure 30.06 in    
Wind  
Wind Speed 5 mph (NNW)    
Max Wind Speed 17 mph    
Max Gust Speed 20 mph    
Visibility 10 miles    
Events Rain    
T = Trace of Precipitation, MM = Missing Value Source: NWS Daily Summary

Daily Weather History Graph

Daily Weather History Graph

Search for Another Location

Airport or City:

Trip Planner

Search our weather history database for the weather conditions in past years. The results will help you decide how hot, cold, wet, or windy it might be!

Date:

Astronomy

Sep. 02, 2013 Rise Set
Actual Time 6:30 AM CDT 7:45 PM CDT
Civil Twilight 5:58 AM CDT 8:16 PM CDT
Nautical Twilight 5:20 AM CDT 8:54 PM CDT
Astronomical Twilight 4:40 AM CDT 9:34 PM CDT
Moon 3:41 AM CDT (9/2) 6:03 PM CDT (9/2)
Length of Visible Light 14h 18m
Length of Day
13h 15m
Waning Crescent, 8% of the Moon is Illuminated
Sep 2
Waning Crescent
Sep 5
New
Sep 12
First Quarter
Sep 19
Full
Sep 26
Last Quarter

Hourly Weather History & Observations

Time (CDT) Temp. Dew Point Humidity Pressure Visibility Wind Dir Wind Speed Gust Speed Precip Events Conditions
12:55 AM 55.9 °F 48.0 °F 75% 30.00 in 10.0 mi NNW 6.9 mph - N/A   Overcast
1:55 AM 54.0 °F 48.0 °F 80% 30.01 in 10.0 mi North 8.1 mph - N/A   Mostly Cloudy
2:18 AM 55.4 °F 48.2 °F 77% 30.00 in 10.0 mi North 8.1 mph - N/A   Overcast
2:55 AM 54.0 °F 48.0 °F 80% 30.01 in 10.0 mi NNW 8.1 mph - N/A   Mostly Cloudy
3:55 AM 54.0 °F 46.0 °F 75% 30.01 in 10.0 mi North 9.2 mph - N/A   Mostly Cloudy
4:55 AM 53.1 °F 46.0 °F 77% 30.03 in 10.0 mi NNW 10.4 mph - N/A   Mostly Cloudy
5:55 AM 52.0 °F 46.0 °F 80% 30.05 in 10.0 mi NW 8.1 mph - N/A   Overcast
6:55 AM 52.0 °F 46.0 °F 80% 30.07 in 10.0 mi NNW 5.8 mph - N/A   Overcast
7:31 AM 51.8 °F 46.4 °F 82% 30.06 in 10.0 mi North 4.6 mph - 0.00 in Rain Light Rain
7:55 AM 53.1 °F 46.9 °F 80% 30.08 in 10.0 mi NNE 5.8 mph - 0.00 in   Overcast
8:30 AM 53.6 °F 46.4 °F 77% 30.08 in 10.0 mi NNE 9.2 mph - N/A   Overcast
8:55 AM 55.0 °F 46.0 °F 72% 30.10 in 10.0 mi NNW 5.8 mph - N/A   Overcast
9:36 AM 53.6 °F 46.4 °F 77% 30.09 in 8.0 mi North 8.1 mph - N/A   Overcast
9:55 AM 54.0 °F 46.9 °F 77% 30.11 in 6.0 mi North 8.1 mph - 0.00 in Rain Light Rain
10:09 AM 53.6 °F 48.2 °F 82% 30.09 in 2.5 mi NNW 10.4 mph - 0.00 in Rain Light Rain
10:17 AM 55.4 °F 48.2 °F 77% 30.09 in 7.0 mi Variable 6.9 mph - 0.00 in Rain Light Rain
10:55 AM 55.0 °F 45.0 °F 69% 30.11 in 10.0 mi North 10.4 mph - 0.00 in   Mostly Cloudy
11:55 AM 57.9 °F 45.0 °F 62% 30.11 in 10.0 mi NW 8.1 mph - N/A   Mostly Cloudy
12:55 PM 60.1 °F 45.0 °F 57% 30.10 in 10.0 mi NW 8.1 mph - N/A   Overcast
1:51 PM 62.6 °F 46.4 °F 55% 30.08 in 10.0 mi NNW 6.9 mph - N/A   Scattered Clouds
1:55 PM 62.1 °F 46.0 °F 56% 30.09 in 10.0 mi North 8.1 mph - N/A   Scattered Clouds
2:55 PM 63.0 °F 46.0 °F 54% 30.07 in 10.0 mi North 9.2 mph - N/A   Partly Cloudy
3:55 PM 64.9 °F 46.0 °F 50% 30.06 in 10.0 mi Calm Calm - N/A   Partly Cloudy
4:55 PM 66.9 °F 46.0 °F 47% 30.06 in 10.0 mi North 5.8 mph - N/A   Partly Cloudy
5:55 PM 66.0 °F 46.0 °F 48% 30.05 in 10.0 mi NW 5.8 mph - N/A   Partly Cloudy
6:55 PM 64.9 °F 46.9 °F 52% 30.05 in 10.0 mi NW 4.6 mph - N/A   Clear
7:55 PM 62.1 °F 46.9 °F 58% 30.05 in 10.0 mi Calm Calm - N/A   Clear
8:55 PM 55.0 °F 46.9 °F 74% 30.05 in 10.0 mi Calm Calm - N/A   Clear
9:55 PM 54.0 °F 46.9 °F 77% 30.06 in 10.0 mi Calm Calm - N/A   Clear
10:55 PM 51.1 °F 46.0 °F 83% 30.06 in 10.0 mi Calm Calm - N/A   Clear
11:55 PM 51.1 °F 45.0 °F 80% 30.06 in 10.0 mi Calm Calm - N/A   Clear